This is the latest recevied weather packets stored in our database for station/object KM8ICE-10. If no packets are shown the sender has not sent any weather packets the latest 10 day(s).
| Time | Temp. | Humidity | Pressure | Rain* | Wind** | Luminosity | Snow |
|---|---|---|---|---|---|---|---|
| 1777461607 | 16.11° C | 98% | 1011.9 hPa | 0.51 mm | - | - | - |
| 1777461008 | 16.11° C | 98% | 1012.1 hPa | 1.02 mm | - | - | - |
| 1777460408 | 16.11° C | 98% | 1012 hPa | 1.27 mm | - | - | - |
| 1777459809 | 16.11° C | 98% | 1012 hPa | 1.27 mm | - | - | - |
| 1777459209 | 16.11° C | 98% | 1012 hPa | 2.29 mm | - | - | - |
| 1777458763 | 16.11° C | 98% | 1012 hPa | 2.29 mm | - | - | - |
| 1777458608 | 16.11° C | 98% | 1012 hPa | 2.29 mm | - | - | - |
| 1777458008 | 16.11° C | 98% | 1012.2 hPa | 2.29 mm | - | - | - |
| 1777457409 | 16.11° C | 98% | 1012.1 hPa | 1.78 mm | - | - | - |
| 1777456808 | 16.11° C | 97% | 1012.1 hPa | 1.78 mm | - | - | - |
| 1777456711 | 16.11° C | 97% | 1012 hPa | 2.29 mm | - | - | - |
| 1777456209 | 16.11° C | 97% | 1012 hPa | 2.29 mm | - | - | - |
| 1777455734 | 16.11° C | 97% | 1011.7 hPa | 1.78 mm | - | - | - |
| 1777455608 | 16.11° C | 97% | 1011.7 hPa | 1.78 mm | - | - | - |
| 1777455008 | 16.11° C | 97% | 1011.8 hPa | 1.27 mm | - | - | - |
| 1777454408 | 16.11° C | 97% | 1011.7 hPa | 1.02 mm | - | - | - |
| 1777453808 | 16.11° C | 97% | 1011.5 hPa | 1.02 mm | - | - | - |
| 1777453264 | 16.11° C | 97% | 1011.5 hPa | 0.51 mm | - | - | - |
| 1777453208 | 16.11° C | 97% | 1011.5 hPa | 0.51 mm | - | - | - |
| 1777452724 | 16.11° C | 97% | 1011.4 hPa | 0.25 mm | - | - | - |
| 1777452608 | 16.11° C | 97% | 1011.4 hPa | 0.25 mm | - | - | - |
| 1777452008 | 16.11° C | 97% | 1011.4 hPa | 0 mm | - | - | - |
| 1777451408 | 16.11° C | 96% | 1011.3 hPa | 0 mm | - | - | - |
| 1777450841 | 16.11° C | 96% | 1011.3 hPa | 0 mm | - | - | - |
| 1777450809 | 16.11° C | 96% | 1011.3 hPa | 0 mm | - | - | - |
* Rain latest hour (hover to see other rain measurements)
** Current wind speed in m/s (hover to see current wind gust speed)